PRIVATE WETTERSTATION BILLIGHEIM-ALLFELD                       ZURCK
Wetterdaten: Montag, 17.10.2016
Datum Zeit Temp. A. Temp. A. min Temp. A. max Feuchte A. Luftdruck Regen Wind Richtung Richtung Sonnenschein ET Solar Taupunkt Windchill Windben Empfang
17.10.2016 00:00 9,1 C 9,1 C 9,4 C 90 % 1021,8 hPa 0,0 l/m 0,0 km/h (0 Bft) N 0 0 min 0,000 mm 0 W/m 7,5 C 9,1 C 0,0 km/h (0 Bft) 100 %
17.10.2016 00:10 8,7 C 8,7 C 9,1 C 90 % 1021,8 hPa 0,0 l/m 0,0 km/h (0 Bft) N 0 0 min 0,000 mm 0 W/m 7,2 C 8,7 C 0,0 km/h (0 Bft) 100 %
17.10.2016 00:20 8,6 C 8,6 C 8,7 C 90 % 1021,7 hPa 0,0 l/m 0,0 km/h (0 Bft) N 0 0 min 0,000 mm 0 W/m 7,1 C 8,6 C 0,0 km/h (0 Bft) 100 %
17.10.2016 00:30 8,3 C 8,3 C 8,6 C 90 % 1021,7 hPa 0,0 l/m 0,0 km/h (0 Bft) N 0 0 min 0,000 mm 0 W/m 6,8 C 8,3 C 0,0 km/h (0 Bft) 88 %
17.10.2016 00:40 8,1 C 8,1 C 8,3 C 90 % 1021,8 hPa 0,0 l/m 0,0 km/h (0 Bft) N 360 0 min 0,000 mm 0 W/m 6,6 C 8,1 C 1,6 km/h (1 Bft) 100 %
17.10.2016 00:50 8,0 C 8,0 C 8,1 C 90 % 1021,7 hPa 0,0 l/m 0,0 km/h (0 Bft) N 0 0 min 0,000 mm 0 W/m 6,5 C 8,0 C 0,0 km/h (0 Bft) 100 %
17.10.2016 01:00 7,8 C 7,8 C 8,0 C 90 % 1021,7 hPa 0,0 l/m 0,0 km/h (0 Bft) N 0 0 min 0,000 mm 0 W/m 6,3 C 7,8 C 0,0 km/h (0 Bft) 100 %
17.10.2016 01:10 7,7 C 7,7 C 7,8 C 90 % 1021,7 hPa 0,0 l/m 0,0 km/h (0 Bft) N 0 0 min 0,000 mm 0 W/m 6,2 C 7,7 C 0,0 km/h (0 Bft) 100 %
17.10.2016 01:20 7,6 C 7,6 C 7,7 C 90 % 1021,6 hPa 0,0 l/m 0,0 km/h (0 Bft) N 0 0 min 0,000 mm 0 W/m 6,1 C 7,6 C 0,0 km/h (0 Bft) 100 %
17.10.2016 01:30 7,4 C 7,4 C 7,6 C 90 % 1021,7 hPa 0,0 l/m 0,0 km/h (0 Bft) N 0 0 min 0,000 mm 0 W/m 5,9 C 7,4 C 0,0 km/h (0 Bft) 100 %
17.10.2016 01:40 7,3 C 7,3 C 7,4 C 91 % 1021,7 hPa 0,0 l/m 0,0 km/h (0 Bft) N 0 0 min 0,000 mm 0 W/m 5,9 C 7,3 C 0,0 km/h (0 Bft) 99 %
17.10.2016 01:50 7,2 C 7,2 C 7,3 C 90 % 1021,7 hPa 0,0 l/m 0,0 km/h (0 Bft) N 0 0 min 0,000 mm 0 W/m 5,7 C 7,2 C 0,0 km/h (0 Bft) 100 %
17.10.2016 02:00 7,1 C 7,1 C 7,2 C 91 % 1021,8 hPa 0,0 l/m 0,0 km/h (0 Bft) N 0 0 min 0,000 mm 0 W/m 5,7 C 7,1 C 0,0 km/h (0 Bft) 100 %
17.10.2016 02:10 6,9 C 6,9 C 7,1 C 91 % 1021,7 hPa 0,0 l/m 0,0 km/h (0 Bft) N 0 0 min 0,000 mm 0 W/m 5,5 C 6,9 C 0,0 km/h (0 Bft) 100 %
17.10.2016 02:20 6,9 C 6,9 C 6,9 C 91 % 1021,7 hPa 0,0 l/m 0,0 km/h (0 Bft) N 0 0 min 0,000 mm 0 W/m 5,5 C 6,9 C 0,0 km/h (0 Bft) 100 %
17.10.2016 02:30 6,8 C 6,8 C 6,9 C 91 % 1021,8 hPa 0,0 l/m 0,0 km/h (0 Bft) N 0 0 min 0,000 mm 0 W/m 5,4 C 6,8 C 0,0 km/h (0 Bft) 100 %
17.10.2016 02:40 6,8 C 6,8 C 6,8 C 91 % 1021,7 hPa 0,0 l/m 0,0 km/h (0 Bft) N 0 0 min 0,000 mm 0 W/m 5,4 C 6,8 C 0,0 km/h (0 Bft) 100 %
17.10.2016 02:50 6,7 C 6,7 C 6,8 C 91 % 1021,8 hPa 0,0 l/m 0,0 km/h (0 Bft) N 0 0 min 0,000 mm 0 W/m 5,3 C 6,7 C 0,0 km/h (0 Bft) 86 %
17.10.2016 03:00 6,5 C 6,5 C 6,7 C 91 % 1021,7 hPa 0,0 l/m 0,0 km/h (0 Bft) N 360 0 min 0,000 mm 0 W/m 5,1 C 6,5 C 6,4 km/h (2 Bft) 100 %
17.10.2016 03:10 6,4 C 6,4 C 6,5 C 91 % 1021,8 hPa 0,0 l/m 0,0 km/h (0 Bft) N 360 0 min 0,000 mm 0 W/m 5,0 C 6,4 C 4,8 km/h (1 Bft) 100 %
17.10.2016 03:20 6,6 C 6,4 C 6,6 C 91 % 1021,7 hPa 0,0 l/m 0,0 km/h (0 Bft) N 360 0 min 0,000 mm 0 W/m 5,2 C 6,6 C 4,8 km/h (1 Bft) 99 %
17.10.2016 03:30 6,8 C 6,6 C 6,8 C 91 % 1021,6 hPa 0,0 l/m 1,6 km/h (1 Bft) N 360 0 min 0,000 mm 0 W/m 5,4 C 6,8 C 8,0 km/h (2 Bft) 100 %
17.10.2016 03:40 6,8 C 6,8 C 6,8 C 91 % 1021,5 hPa 0,0 l/m 0,0 km/h (0 Bft) N 0 0 min 0,000 mm 0 W/m 5,4 C 6,8 C 0,0 km/h (0 Bft) 100 %
17.10.2016 03:50 6,6 C 6,6 C 6,8 C 91 % 1021,4 hPa 0,0 l/m 0,0 km/h (0 Bft) N 0 0 min 0,000 mm 0 W/m 5,2 C 6,6 C 0,0 km/h (0 Bft) 100 %
17.10.2016 04:00 6,4 C 6,4 C 6,6 C 91 % 1021,2 hPa 0,0 l/m 0,0 km/h (0 Bft) N 360 0 min 0,000 mm 0 W/m 5,0 C 6,4 C 1,6 km/h (1 Bft) 100 %
17.10.2016 04:10 6,7 C 6,4 C 6,8 C 91 % 1021,4 hPa 0,0 l/m 0,0 km/h (0 Bft) W-NW 292 0 min 0,000 mm 0 W/m 5,3 C 6,7 C 6,4 km/h (2 Bft) 100 %
17.10.2016 04:20 6,4 C 6,4 C 6,7 C 91 % 1021,6 hPa 0,0 l/m 0,0 km/h (0 Bft) N-NW 337 0 min 0,000 mm 0 W/m 5,0 C 6,4 C 4,8 km/h (1 Bft) 100 %
17.10.2016 04:30 6,6 C 6,4 C 6,6 C 91 % 1021,6 hPa 0,0 l/m 0,0 km/h (0 Bft) N 0 0 min 0,000 mm 0 W/m 5,2 C 6,6 C 0,0 km/h (0 Bft) 100 %
17.10.2016 04:40 7,0 C 6,6 C 7,0 C 91 % 1021,7 hPa 0,0 l/m 0,0 km/h (0 Bft) N 0 0 min 0,000 mm 0 W/m 5,6 C 7,0 C 0,0 km/h (0 Bft) 100 %
17.10.2016 04:50 7,3 C 7,0 C 7,3 C 91 % 1021,5 hPa 0,0 l/m 0,0 km/h (0 Bft) N 0 0 min 0,000 mm 0 W/m 5,9 C 7,3 C 0,0 km/h (0 Bft) 100 %
17.10.2016 05:00 7,4 C 7,3 C 7,4 C 91 % 1021,6 hPa 0,0 l/m 0,0 km/h (0 Bft) N 0 0 min 0,000 mm 0 W/m 6,0 C 7,4 C 0,0 km/h (0 Bft) 100 %
17.10.2016 05:10 7,5 C 7,4 C 7,5 C 91 % 1021,6 hPa 0,0 l/m 0,0 km/h (0 Bft) N 0 0 min 0,000 mm 0 W/m 6,1 C 7,5 C 0,0 km/h (0 Bft) 90 %
17.10.2016 05:20 7,3 C 7,3 C 7,4 C 91 % 1021,6 hPa 0,0 l/m 0,0 km/h (0 Bft) N 0 0 min 0,000 mm 0 W/m 5,9 C 7,3 C 0,0 km/h (0 Bft) 99 %
17.10.2016 05:30 7,2 C 7,2 C 7,3 C 91 % 1021,5 hPa 0,0 l/m 0,0 km/h (0 Bft) N 0 0 min 0,000 mm 0 W/m 5,8 C 7,2 C 0,0 km/h (0 Bft) 100 %
17.10.2016 05:40 7,1 C 7,1 C 7,2 C 91 % 1021,5 hPa 0,0 l/m 0,0 km/h (0 Bft) N 360 0 min 0,000 mm 0 W/m 5,7 C 7,1 C 3,2 km/h (1 Bft) 100 %
17.10.2016 05:50 6,9 C 6,9 C 7,1 C 91 % 1021,4 hPa 0,0 l/m 1,6 km/h (1 Bft) N 360 0 min 0,000 mm 0 W/m 5,5 C 6,9 C 4,8 km/h (1 Bft) 100 %
17.10.2016 06:00 6,8 C 6,8 C 6,9 C 91 % 1021,5 hPa 0,0 l/m 0,0 km/h (0 Bft) N 360 0 min 0,000 mm 0 W/m 5,4 C 6,8 C 1,6 km/h (1 Bft) 100 %
17.10.2016 06:10 6,9 C 6,8 C 6,9 C 91 % 1021,5 hPa 0,0 l/m 0,0 km/h (0 Bft) N 0 0 min 0,000 mm 0 W/m 5,5 C 6,9 C 0,0 km/h (0 Bft) 100 %
17.10.2016 06:20 6,9 C 6,9 C 6,9 C 91 % 1021,5 hPa 0,0 l/m 0,0 km/h (0 Bft) N 0 0 min 0,000 mm 0 W/m 5,5 C 6,9 C 0,0 km/h (0 Bft) 100 %
17.10.2016 06:30 6,9 C 6,9 C 6,9 C 91 % 1021,6 hPa 0,0 l/m 0,0 km/h (0 Bft) N 0 0 min 0,000 mm 0 W/m 5,5 C 6,9 C 0,0 km/h (0 Bft) 100 %
17.10.2016 06:40 6,9 C 6,8 C 6,9 C 91 % 1021,4 hPa 0,0 l/m 0,0 km/h (0 Bft) N 0 0 min 0,000 mm 0 W/m 5,5 C 6,9 C 0,0 km/h (0 Bft) 100 %
17.10.2016 06:50 6,9 C 6,8 C 6,9 C 91 % 1021,4 hPa 0,0 l/m 0,0 km/h (0 Bft) N 360 0 min 0,000 mm 0 W/m 5,5 C 6,9 C 1,6 km/h (1 Bft) 99 %
17.10.2016 07:00 6,9 C 6,9 C 6,9 C 91 % 1021,4 hPa 0,0 l/m 0,0 km/h (0 Bft) N 0 0 min 0,000 mm 0 W/m 5,5 C 6,9 C 0,0 km/h (0 Bft) 100 %
17.10.2016 07:10 6,9 C 6,9 C 6,9 C 91 % 1021,7 hPa 0,0 l/m 0,0 km/h (0 Bft) N 0 0 min 0,000 mm 0 W/m 5,5 C 6,9 C 0,0 km/h (0 Bft) 100 %
17.10.2016 07:20 6,9 C 6,9 C 6,9 C 91 % 1021,4 hPa 0,0 l/m 0,0 km/h (0 Bft) N 0 0 min 0,000 mm 0 W/m 5,5 C 6,9 C 0,0 km/h (0 Bft) 100 %
17.10.2016 07:30 7,0 C 6,9 C 7,0 C 91 % 1021,3 hPa 0,0 l/m 0,0 km/h (0 Bft) N 0 0 min 0,000 mm 0 W/m 5,6 C 7,0 C 0,0 km/h (0 Bft) 100 %
17.10.2016 07:40 6,9 C 6,9 C 7,0 C 91 % 1021,4 hPa 0,0 l/m 0,0 km/h (0 Bft) N 0 0 min 0,000 mm 0 W/m 5,5 C 6,9 C 0,0 km/h (0 Bft) 91 %
17.10.2016 07:50 6,8 C 6,8 C 6,9 C 91 % 1021,4 hPa 0,0 l/m 0,0 km/h (0 Bft) N 0 0 min 0,000 mm 0 W/m 5,4 C 6,8 C 0,0 km/h (0 Bft) 100 %
17.10.2016 08:00 6,8 C 6,7 C 6,8 C 91 % 1021,4 hPa 0,0 l/m 0,0 km/h (0 Bft) N 360 0 min 0,000 mm 7 W/m 5,4 C 6,8 C 1,6 km/h (1 Bft) 100 %
17.10.2016 08:10 6,8 C 6,8 C 6,8 C 91 % 1021,6 hPa 0,0 l/m 0,0 km/h (0 Bft) N 360 0 min 0,000 mm 14 W/m 5,4 C 6,8 C 1,6 km/h (1 Bft) 100 %
17.10.2016 08:20 6,8 C 6,8 C 6,8 C 91 % 1021,6 hPa 0,0 l/m 0,0 km/h (0 Bft) N 0 0 min 0,000 mm 19 W/m 5,4 C 6,8 C 0,0 km/h (0 Bft) 100 %
17.10.2016 08:30 6,8 C 6,8 C 6,8 C 91 % 1021,6 hPa 0,0 l/m 0,0 km/h (0 Bft) N 0 0 min 0,000 mm 23 W/m 5,4 C 6,8 C 0,0 km/h (0 Bft) 100 %
17.10.2016 08:40 6,9 C 6,8 C 6,9 C 91 % 1021,7 hPa 0,0 l/m 0,0 km/h (0 Bft) N 0 0 min 0,000 mm 30 W/m 5,5 C 6,9 C 0,0 km/h (0 Bft) 100 %
17.10.2016 08:50 7,1 C 6,9 C 7,1 C 91 % 1021,7 hPa 0,0 l/m 0,0 km/h (0 Bft) N 0 0 min 0,000 mm 35 W/m 5,7 C 7,1 C 0,0 km/h (0 Bft) 100 %
17.10.2016 09:00 7,2 C 7,1 C 7,2 C 91 % 1021,8 hPa 0,0 l/m 0,0 km/h (0 Bft) N 0 0 min 0,000 mm 47 W/m 5,8 C 7,2 C 0,0 km/h (0 Bft) 100 %
17.10.2016 09:10 7,3 C 7,2 C 7,3 C 91 % 1022,1 hPa 0,0 l/m 0,0 km/h (0 Bft) N 0 0 min 0,000 mm 53 W/m 5,9 C 7,3 C 0,0 km/h (0 Bft) 100 %
17.10.2016 09:20 7,4 C 7,3 C 7,4 C 91 % 1022,0 hPa 0,0 l/m 0,0 km/h (0 Bft) N 0 0 min 0,000 mm 58 W/m 6,0 C 7,4 C 0,0 km/h (0 Bft) 100 %
17.10.2016 09:30 7,7 C 7,4 C 7,7 C 91 % 1022,0 hPa 0,0 l/m 0,0 km/h (0 Bft) N 0 0 min 0,000 mm 70 W/m 6,3 C 7,7 C 0,0 km/h (0 Bft) 100 %
17.10.2016 09:40 7,9 C 7,7 C 7,9 C 91 % 1021,9 hPa 0,0 l/m 0,0 km/h (0 Bft) N 0 0 min 0,000 mm 76 W/m 6,5 C 7,9 C 0,0 km/h (0 Bft) 100 %
17.10.2016 09:50 8,1 C 7,9 C 8,1 C 91 % 1022,1 hPa 0,0 l/m 0,0 km/h (0 Bft) N 360 0 min 0,000 mm 88 W/m 6,7 C 8,1 C 4,8 km/h (1 Bft) 100 %
17.10.2016 10:00 8,3 C 8,1 C 8,3 C 91 % 1022,4 hPa 0,0 l/m 0,0 km/h (0 Bft) N 360 0 min 0,025 mm 109 W/m 6,9 C 8,3 C 1,6 km/h (1 Bft) 100 %
17.10.2016 10:10 8,7 C 8,3 C 8,7 C 91 % 1022,5 hPa 0,0 l/m 1,6 km/h (1 Bft) N 360 0 min 0,000 mm 134 W/m 7,3 C 8,7 C 3,2 km/h (1 Bft) 91 %
17.10.2016 10:20 9,1 C 8,7 C 9,1 C 91 % 1022,5 hPa 0,0 l/m 0,0 km/h (0 Bft) N 360 10 min 0,000 mm 155 W/m 7,7 C 9,1 C 1,6 km/h (1 Bft) 100 %
17.10.2016 10:30 9,5 C 9,1 C 9,5 C 91 % 1022,3 hPa 0,0 l/m 0,0 km/h (0 Bft) N 360 10 min 0,000 mm 193 W/m 8,1 C 9,5 C 1,6 km/h (1 Bft) 100 %
17.10.2016 10:40 10,0 C 9,5 C 10,0 C 91 % 1022,3 hPa 0,0 l/m 0,0 km/h (0 Bft) N 0 10 min 0,000 mm 204 W/m 8,6 C 10,0 C 0,0 km/h (0 Bft) 100 %
17.10.2016 10:50 10,6 C 10,1 C 10,6 C 91 % 1022,5 hPa 0,0 l/m 0,0 km/h (0 Bft) N 0 10 min 0,000 mm 200 W/m 9,2 C 10,6 C 0,0 km/h (0 Bft) 100 %
17.10.2016 11:00 11,3 C 10,6 C 11,3 C 91 % 1022,6 hPa 0,0 l/m 0,0 km/h (0 Bft) N 0 10 min 0,076 mm 213 W/m 9,9 C 11,3 C 0,0 km/h (0 Bft) 100 %
17.10.2016 11:10 11,8 C 11,3 C 11,8 C 91 % 1022,6 hPa 0,0 l/m 0,0 km/h (0 Bft) N 0 10 min 0,000 mm 243 W/m 10,4 C 11,8 C 0,0 km/h (0 Bft) 100 %
17.10.2016 11:20 12,3 C 11,8 C 12,3 C 91 % 1022,5 hPa 0,0 l/m 0,0 km/h (0 Bft) N 0 10 min 0,000 mm 255 W/m 10,9 C 12,3 C 0,0 km/h (0 Bft) 100 %
17.10.2016 11:30 12,8 C 12,3 C 12,8 C 91 % 1022,2 hPa 0,0 l/m 0,0 km/h (0 Bft) N 0 10 min 0,000 mm 244 W/m 11,4 C 12,8 C 0,0 km/h (0 Bft) 100 %
17.10.2016 11:40 13,1 C 12,8 C 13,1 C 90 % 1022,2 hPa 0,0 l/m 0,0 km/h (0 Bft) N 0 10 min 0,000 mm 243 W/m 11,5 C 13,1 C 0,0 km/h (0 Bft) 100 %
17.10.2016 11:50 13,3 C 13,1 C 13,3 C 88 % 1022,1 hPa 0,0 l/m 1,6 km/h (1 Bft) N-NW 337 10 min 0,000 mm 271 W/m 11,4 C 13,3 C 4,8 km/h (1 Bft) 100 %
17.10.2016 12:00 13,4 C 13,3 C 13,4 C 87 % 1022,2 hPa 0,0 l/m 3,2 km/h (1 Bft) W-SW 247 10 min 0,127 mm 274 W/m 11,3 C 13,4 C 6,4 km/h (2 Bft) 100 %
17.10.2016 12:10 13,3 C 13,3 C 13,4 C 86 % 1022,1 hPa 0,0 l/m 1,6 km/h (1 Bft) S-SW 202 10 min 0,000 mm 271 W/m 11,0 C 13,3 C 4,8 km/h (1 Bft) 100 %
17.10.2016 12:20 13,7 C 13,3 C 13,7 C 86 % 1022,1 hPa 0,0 l/m 3,2 km/h (1 Bft) S-SW 202 10 min 0,000 mm 267 W/m 11,4 C 13,7 C 6,4 km/h (2 Bft) 100 %
17.10.2016 12:30 14,0 C 13,7 C 14,0 C 84 % 1022,0 hPa 0,0 l/m 3,2 km/h (1 Bft) S-SW 202 10 min 0,000 mm 299 W/m 11,3 C 14,0 C 6,4 km/h (2 Bft) 100 %
17.10.2016 12:40 14,1 C 13,9 C 14,1 C 83 % 1021,9 hPa 0,0 l/m 0,0 km/h (0 Bft) S-SW 202 10 min 0,000 mm 315 W/m 11,3 C 14,1 C 4,8 km/h (1 Bft) 100 %
17.10.2016 12:50 14,4 C 14,1 C 14,4 C 83 % 1021,9 hPa 0,0 l/m 0,0 km/h (0 Bft) S-SW 202 10 min 0,000 mm 308 W/m 11,5 C 14,4 C 1,6 km/h (1 Bft) 100 %
17.10.2016 13:00 14,9 C 14,5 C 14,9 C 82 % 1021,7 hPa 0,0 l/m 0,0 km/h (0 Bft) N 0 10 min 0,152 mm 306 W/m 11,9 C 14,9 C 0,0 km/h (0 Bft) 100 %
17.10.2016 13:10 15,1 C 14,9 C 15,1 C 82 % 1021,8 hPa 0,0 l/m 1,6 km/h (1 Bft) S-SW 202 10 min 0,000 mm 295 W/m 12,0 C 15,1 C 4,8 km/h (1 Bft) 100 %
17.10.2016 13:20 15,1 C 15,1 C 15,2 C 80 % 1021,7 hPa 0,0 l/m 1,6 km/h (1 Bft) S-SW 202 10 min 0,000 mm 279 W/m 11,7 C 15,1 C 4,8 km/h (1 Bft) 100 %
17.10.2016 13:30 15,2 C 15,1 C 15,2 C 79 % 1021,7 hPa 0,0 l/m 1,6 km/h (1 Bft) S-SW 202 10 min 0,000 mm 285 W/m 11,6 C 15,2 C 6,4 km/h (2 Bft) 100 %
17.10.2016 13:40 15,2 C 15,2 C 15,2 C 80 % 1021,6 hPa 0,0 l/m 0,0 km/h (0 Bft) S-SW 202 10 min 0,000 mm 267 W/m 11,8 C 15,2 C 1,6 km/h (1 Bft) 100 %
17.10.2016 13:50 15,2 C 15,2 C 15,3 C 78 % 1021,6 hPa 0,0 l/m 0,0 km/h (0 Bft) S-SW 202 10 min 0,000 mm 221 W/m 11,4 C 15,2 C 4,8 km/h (1 Bft) 100 %
17.10.2016 14:00 15,2 C 15,2 C 15,3 C 79 % 1021,5 hPa 0,0 l/m 1,6 km/h (1 Bft) S-SW 202 10 min 0,127 mm 213 W/m 11,6 C 15,2 C 8,0 km/h (2 Bft) 100 %
17.10.2016 14:10 15,3 C 15,2 C 15,3 C 79 % 1021,5 hPa 0,0 l/m 0,0 km/h (0 Bft) S-SW 202 10 min 0,000 mm 195 W/m 11,7 C 15,3 C 1,6 km/h (1 Bft) 100 %
17.10.2016 14:20 15,2 C 15,2 C 15,3 C 80 % 1021,6 hPa 0,0 l/m 1,6 km/h (1 Bft) S-SW 202 10 min 0,000 mm 176 W/m 11,8 C 15,2 C 4,8 km/h (1 Bft) 100 %
17.10.2016 14:30 15,1 C 15,1 C 15,2 C 80 % 1021,4 hPa 0,0 l/m 3,2 km/h (1 Bft) S-SW 202 10 min 0,000 mm 176 W/m 11,7 C 15,1 C 6,4 km/h (2 Bft) 100 %
17.10.2016 14:40 15,1 C 15,1 C 15,1 C 81 % 1021,4 hPa 0,0 l/m 1,6 km/h (1 Bft) S-SW 202 10 min 0,000 mm 179 W/m 11,9 C 15,1 C 6,4 km/h (2 Bft) 100 %
17.10.2016 14:50 15,3 C 15,1 C 15,3 C 79 % 1021,5 hPa 0,0 l/m 3,2 km/h (1 Bft) S-SW 202 10 min 0,000 mm 165 W/m 11,7 C 15,3 C 6,4 km/h (2 Bft) 100 %
17.10.2016 15:00 15,3 C 15,3 C 15,3 C 79 % 1021,5 hPa 0,0 l/m 3,2 km/h (1 Bft) W-SW 247 10 min 0,102 mm 165 W/m 11,7 C 15,3 C 6,4 km/h (2 Bft) 100 %
17.10.2016 15:10 15,4 C 15,3 C 15,4 C 78 % 1021,5 hPa 0,0 l/m 3,2 km/h (1 Bft) SW 225 10 min 0,000 mm 165 W/m 11,6 C 15,4 C 6,4 km/h (2 Bft) 100 %
17.10.2016 15:20 15,3 C 15,3 C 15,4 C 79 % 1021,5 hPa 0,0 l/m 1,6 km/h (1 Bft) SW 225 10 min 0,000 mm 153 W/m 11,7 C 15,3 C 6,4 km/h (2 Bft) 100 %
17.10.2016 15:30 15,3 C 15,3 C 15,4 C 79 % 1021,5 hPa 0,0 l/m 0,0 km/h (0 Bft) SW 225 10 min 0,000 mm 153 W/m 11,7 C 15,3 C 6,4 km/h (2 Bft) 100 %
17.10.2016 15:40 15,3 C 15,3 C 15,3 C 80 % 1021,5 hPa 0,0 l/m 1,6 km/h (1 Bft) SW 225 10 min 0,000 mm 155 W/m 11,9 C 15,3 C 4,8 km/h (1 Bft) 100 %
17.10.2016 15:50 15,4 C 15,3 C 15,4 C 81 % 1021,6 hPa 0,0 l/m 0,0 km/h (0 Bft) SW 225 0 min 0,000 mm 130 W/m 12,2 C 15,4 C 1,6 km/h (1 Bft) 100 %
17.10.2016 16:00 15,4 C 15,4 C 15,4 C 81 % 1021,6 hPa 0,0 l/m 0,0 km/h (0 Bft) SW 225 0 min 0,076 mm 134 W/m 12,2 C 15,4 C 1,6 km/h (1 Bft) 100 %
17.10.2016 16:10 15,3 C 15,3 C 15,4 C 81 % 1021,5 hPa 0,0 l/m 1,6 km/h (1 Bft) SW 225 0 min 0,000 mm 134 W/m 12,1 C 15,3 C 4,8 km/h (1 Bft) 98 %
17.10.2016 16:20 15,1 C 15,1 C 15,3 C 82 % 1021,4 hPa 0,0 l/m 0,0 km/h (0 Bft) SW 225 0 min 0,000 mm 114 W/m 12,0 C 15,1 C 3,2 km/h (1 Bft) 89 %
17.10.2016 16:30 15,1 C 15,1 C 15,1 C 82 % 1021,3 hPa 0,0 l/m 0,0 km/h (0 Bft) SW 225 0 min 0,000 mm 95 W/m 12,0 C 15,1 C 1,6 km/h (1 Bft) 98 %
17.10.2016 16:40 15,1 C 15,1 C 15,1 C 82 % 1021,3 hPa 0,0 l/m 0,0 km/h (0 Bft) N 0 0 min 0,000 mm 77 W/m 12,0 C 15,1 C 0,0 km/h (0 Bft) 98 %
17.10.2016 16:50 14,9 C 14,8 C 15,1 C 83 % 1021,4 hPa 0,0 l/m 0,0 km/h (0 Bft) SW 225 0 min 0,000 mm 70 W/m 12,0 C 14,9 C 1,6 km/h (1 Bft) 97 %
17.10.2016 17:00 14,7 C 14,7 C 15,1 C 84 % 1021,4 hPa 0,0 l/m 0,0 km/h (0 Bft) SW 232 0 min 0,052 mm 39 W/m 12,0 C 14,7 C 0,0 km/h (0 Bft) 100 %
17.10.2016 17:10 14,5 C 14,5 C 14,7 C 84 % 1021,5 hPa 0,0 l/m 0,0 km/h (0 Bft) SW 232 0 min 0,000 mm 28 W/m 11,8 C 14,5 C 0,0 km/h (0 Bft) 100 %
17.10.2016 17:20 14,3 C 14,3 C 14,5 C 85 % 1021,4 hPa 0,0 l/m 0,0 km/h (0 Bft) SW 232 0 min 0,000 mm 23 W/m 11,8 C 14,3 C 0,0 km/h (0 Bft) 100 %
17.10.2016 17:30 14,2 C 14,2 C 14,3 C 86 % 1021,4 hPa 0,0 l/m 0,0 km/h (0 Bft) SW 232 0 min 0,000 mm 21 W/m 11,9 C 14,2 C 0,0 km/h (0 Bft) 100 %
17.10.2016 17:40 14,1 C 14,1 C 14,2 C 86 % 1021,6 hPa 0,0 l/m 0,0 km/h (0 Bft) SW 232 0 min 0,000 mm 21 W/m 11,8 C 14,1 C 0,0 km/h (0 Bft) 100 %
17.10.2016 17:50 13,9 C 13,9 C 14,1 C 87 % 1021,6 hPa 0,0 l/m 0,0 km/h (0 Bft) SW 232 0 min 0,000 mm 18 W/m 11,8 C 13,9 C 0,0 km/h (0 Bft) 100 %
17.10.2016 18:00 13,8 C 13,8 C 13,9 C 87 % 1021,7 hPa 0,0 l/m 0,0 km/h (0 Bft) SW 232 0 min 0,000 mm 11 W/m 11,7 C 13,8 C 0,0 km/h (0 Bft) 100 %
17.10.2016 18:10 13,6 C 13,6 C 13,8 C 87 % 1021,7 hPa 0,0 l/m 0,0 km/h (0 Bft) SW 232 0 min 0,025 mm 0 W/m 11,5 C 13,6 C 0,0 km/h (0 Bft) 100 %
17.10.2016 18:20 13,6 C 13,6 C 13,6 C 87 % 1021,8 hPa 0,0 l/m 0,0 km/h (0 Bft) SW 232 0 min 0,000 mm 0 W/m 11,5 C 13,6 C 0,0 km/h (0 Bft) 100 %
17.10.2016 18:30 13,4 C 13,4 C 13,6 C 88 % 1022,0 hPa 0,0 l/m 0,0 km/h (0 Bft) SW 232 0 min 0,000 mm 0 W/m 11,5 C 13,4 C 0,0 km/h (0 Bft) 100 %
17.10.2016 18:40 13,3 C 13,3 C 13,4 C 88 % 1022,0 hPa 0,0 l/m 0,0 km/h (0 Bft) SW 232 0 min 0,000 mm 0 W/m 11,4 C 13,3 C 0,0 km/h (0 Bft) 100 %
17.10.2016 18:50 13,3 C 13,3 C 13,3 C 89 % 1022,2 hPa 0,0 l/m 0,1 km/h (0 Bft) SW 232 0 min 0,000 mm 0 W/m 11,5 C 13,3 C 3,2 km/h (1 Bft) 100 %
17.10.2016 19:00 13,3 C 13,3 C 13,3 C 89 % 1022,2 hPa 0,0 l/m 0,2 km/h (0 Bft) SW 232 0 min 0,000 mm 0 W/m 11,5 C 13,3 C 3,2 km/h (1 Bft) 100 %
17.10.2016 19:10 13,3 C 13,3 C 13,3 C 89 % 1022,3 hPa 0,0 l/m 0,0 km/h (0 Bft) SW 232 0 min 0,000 mm 0 W/m 11,5 C 13,3 C 0,0 km/h (0 Bft) 100 %
17.10.2016 19:20 13,2 C 13,2 C 13,3 C 89 % 1022,4 hPa 0,0 l/m 0,0 km/h (0 Bft) SW 232 0 min 0,000 mm 0 W/m 11,4 C 13,2 C 0,0 km/h (0 Bft) 100 %
17.10.2016 19:30 13,1 C 13,1 C 13,2 C 89 % 1022,6 hPa 0,2 l/m 0,5 km/h (0 Bft) SW 232 0 min 0,000 mm 0 W/m 11,3 C 13,1 C 4,8 km/h (1 Bft) 91 %
17.10.2016 19:40 13,0 C 13,0 C 13,1 C 90 % 1022,6 hPa 0,0 l/m 0,3 km/h (0 Bft) SW 232 0 min 0,000 mm 0 W/m 11,4 C 13,0 C 3,2 km/h (1 Bft) 100 %
17.10.2016 19:50 12,9 C 12,9 C 13,0 C 90 % 1022,6 hPa 0,0 l/m 0,4 km/h (0 Bft) SW 232 0 min 0,000 mm 0 W/m 11,3 C 12,9 C 3,2 km/h (1 Bft) 100 %
17.10.2016 20:00 12,9 C 12,9 C 12,9 C 90 % 1022,6 hPa 0,0 l/m 0,5 km/h (0 Bft) SW 232 0 min 0,000 mm 0 W/m 11,3 C 12,9 C 4,8 km/h (1 Bft) 100 %
17.10.2016 20:10 12,8 C 12,8 C 12,9 C 90 % 1022,6 hPa 0,2 l/m 0,0 km/h (0 Bft) SW 232 0 min 0,000 mm 0 W/m 11,2 C 12,8 C 0,0 km/h (0 Bft) 100 %
17.10.2016 20:20 12,7 C 12,7 C 12,8 C 90 % 1022,6 hPa 0,0 l/m 0,0 km/h (0 Bft) SW 232 0 min 0,000 mm 0 W/m 11,1 C 12,7 C 0,0 km/h (0 Bft) 100 %
17.10.2016 20:30 12,6 C 12,6 C 12,7 C 90 % 1022,6 hPa 0,0 l/m 0,0 km/h (0 Bft) SW 232 0 min 0,000 mm 0 W/m 11,0 C 12,6 C 0,0 km/h (0 Bft) 100 %
17.10.2016 20:40 12,5 C 12,5 C 12,6 C 90 % 1022,6 hPa 0,0 l/m 0,0 km/h (0 Bft) SW 232 0 min 0,000 mm 0 W/m 10,9 C 12,5 C 0,0 km/h (0 Bft) 99 %
17.10.2016 20:50 12,4 C 12,4 C 12,6 C 90 % 1022,5 hPa 0,0 l/m 0,0 km/h (0 Bft) SW 225 0 min 0,000 mm 0 W/m 10,8 C 12,4 C 1,6 km/h (1 Bft) 100 %
17.10.2016 21:00 12,3 C 12,3 C 12,4 C 91 % 1022,4 hPa 0,0 l/m 0,0 km/h (0 Bft) SW 223 0 min 0,000 mm 0 W/m 10,9 C 12,3 C 1,6 km/h (1 Bft) 100 %
17.10.2016 21:10 12,2 C 12,2 C 12,3 C 91 % 1022,5 hPa 0,0 l/m 0,0 km/h (0 Bft) N 0 0 min 0,000 mm 0 W/m 10,8 C 12,2 C 0,0 km/h (0 Bft) 89 %
17.10.2016 21:20 12,0 C 12,0 C 12,2 C 91 % 1022,5 hPa 0,0 l/m 0,0 km/h (0 Bft) N 0 0 min 0,000 mm 0 W/m 10,6 C 12,0 C 0,0 km/h (0 Bft) 98 %
17.10.2016 21:30 11,9 C 11,9 C 12,0 C 91 % 1022,6 hPa 0,0 l/m 0,0 km/h (0 Bft) N 0 0 min 0,000 mm 0 W/m 10,5 C 11,9 C 0,0 km/h (0 Bft) 98 %
17.10.2016 21:40 12,1 C 11,9 C 12,1 C 91 % 1022,6 hPa 0,0 l/m 0,0 km/h (0 Bft) SW 225 0 min 0,000 mm 0 W/m 10,7 C 12,1 C 1,6 km/h (1 Bft) 98 %
17.10.2016 21:50 12,1 C 12,1 C 12,1 C 91 % 1022,7 hPa 0,0 l/m 0,0 km/h (0 Bft) SW 225 0 min 0,000 mm 0 W/m 10,7 C 12,1 C 1,6 km/h (1 Bft) 98 %
17.10.2016 22:00 12,1 C 12,0 C 12,1 C 91 % 1022,7 hPa 0,0 l/m 0,0 km/h (0 Bft) SW 225 0 min 0,000 mm 0 W/m 10,7 C 12,1 C 1,6 km/h (1 Bft) 98 %
17.10.2016 22:10 12,1 C 12,1 C 12,1 C 91 % 1022,7 hPa 0,0 l/m 1,6 km/h (1 Bft) SW 225 0 min 0,000 mm 0 W/m 10,7 C 12,1 C 3,2 km/h (1 Bft) 98 %
17.10.2016 22:20 12,1 C 12,1 C 12,1 C 91 % 1022,6 hPa 0,0 l/m 1,6 km/h (1 Bft) SW 225 0 min 0,000 mm 0 W/m 10,7 C 12,1 C 4,8 km/h (1 Bft) 97 %
17.10.2016 22:30 12,1 C 12,0 C 12,1 C 91 % 1022,5 hPa 0,0 l/m 1,6 km/h (1 Bft) SW 225 0 min 0,000 mm 0 W/m 10,7 C 12,1 C 4,8 km/h (1 Bft) 98 %
17.10.2016 22:40 12,0 C 12,0 C 12,1 C 91 % 1022,6 hPa 0,0 l/m 3,2 km/h (1 Bft) SW 225 0 min 0,000 mm 0 W/m 10,6 C 12,0 C 4,8 km/h (1 Bft) 98 %
17.10.2016 22:50 12,0 C 12,0 C 12,0 C 91 % 1022,6 hPa 0,0 l/m 1,6 km/h (1 Bft) SW 225 0 min 0,000 mm 0 W/m 10,6 C 12,0 C 4,8 km/h (1 Bft) 97 %
17.10.2016 23:00 11,9 C 11,9 C 12,0 C 91 % 1022,6 hPa 0,0 l/m 0,0 km/h (0 Bft) N 0 0 min 0,000 mm 0 W/m 10,5 C 11,9 C 0,0 km/h (0 Bft) 98 %
17.10.2016 23:10 11,9 C 11,9 C 11,9 C 91 % 1022,6 hPa 0,0 l/m 1,6 km/h (1 Bft) SW 225 0 min 0,000 mm 0 W/m 10,5 C 11,9 C 3,2 km/h (1 Bft) 97 %
17.10.2016 23:20 11,9 C 11,9 C 11,9 C 91 % 1022,5 hPa 0,0 l/m 0,0 km/h (0 Bft) N 0 0 min 0,000 mm 0 W/m 10,5 C 11,9 C 0,0 km/h (0 Bft) 98 %
17.10.2016 23:30 11,8 C 11,8 C 11,9 C 91 % 1022,4 hPa 0,0 l/m 0,0 km/h (0 Bft) N 0 0 min 0,000 mm 0 W/m 10,4 C 11,8 C 0,0 km/h (0 Bft) 98 %
17.10.2016 23:40 11,8 C 11,8 C 11,8 C 91 % 1022,3 hPa 0,0 l/m 0,0 km/h (0 Bft) SW 225 0 min 0,000 mm 0 W/m 10,4 C 11,8 C 1,6 km/h (1 Bft) 98 %
17.10.2016 23:50 11,8 C 11,8 C 11,8 C 91 % 1022,3 hPa 0,0 l/m 0,0 km/h (0 Bft) N 0 0 min 0,000 mm 0 W/m 10,4 C 11,8 C 0,0 km/h (0 Bft) 98 %
_ Min-Zeit 03:10 03:10 03:10 13:50 04:00 - 00:00 - - - - - 03:10 03:10 00:00 02:50
Minimum _ 6,4 C 6,4 C 6,5 C 78 % 1021,2 hPa - 0,0 km/h (0 Bft) - - - - - 5,0 C 6,4 C 0,0 km/h (0 Bft) 86 %
_ Max-Zeit 15:10 16:00 15:10 01:40 21:50 19:30 12:00 - - 10:20 13:00 12:40 15:50 15:10 03:30 00:20
Maximum _ 15,4 C 15,4 C 15,4 C 91 % 1022,7 hPa 0,2 l/m 3,2 km/h
W-SW (1 Bft)
- - 10 min 0,152 mm 315 W/m 12,2 C 15,4 C 8,0 km/h
N (2 Bft)
100 %
Durchschnitt _ 10,7 C 10,7 C 10,8 C 88 % 1021,9 hPa #0,4 l/m 0,4 km/h (0 Bft) S-SW - #5:30 h #0,762 mm 151 W/m 8,9 C 10,7 C 1,8 km/h (1 Bft) 99 %
PRIVATE WETTERSTATION BILLIGHEIM-ALLFELD - www.neckar-odenwald-wetter.de - Holger Sonntag